User: anonymous   Login
Location: Unspecified
(0.0000°N, 0.0000°E)
Time: 20:39:18
(UTC+00:00)
Language:

XW-2C - Orbit

View from above orbital plane
View from above orbital plane
View from above satellite
View from above satellite

Ground track
Ground track

The orbit data is extracted from the following two-line orbital elements,

1 40906U 15049H   18203.51698758  .00000556  00000-0  33072-4 0  9996
2 40906  97.4601 206.3622 0013308 267.4044  92.5665 15.15243920156840
Epoch (UTC): 22 July 2018 12:24:27
Eccentricity: 0.0013308
inclination: 97.4601°
perigee height: 511 km
apogee height: 529 km
right ascension of ascending node: 206.3622°
argument of perigee: 267.4044°
revolutions per day: 15.15243920
mean anomaly at epoch: 92.5665°
orbit number at epoch: 15684

The dashed part of the orbit path shows where the satellite is in the earth's shadow,  

DLR